EHI
0 0 0 0 0 0 0 0 0 0 0 0 0 0 0 0 0 0 1 2 2 1 0 0 0 1 3 3 3 2 1 1 1 1 0 0 0 0 0 1 1 1 1
0 0 0 0 0 0 0 0 0 0 0 0 0 0 0 0 0 0 0 1 1 0 0 0 0 1 2 2 2 2 2 2 2 1 0 0 0 0 1 1 1 1 1
0 0 0 0 0 0 0 0 0 0 0 0 0 0 0 0 0 0 0 0 0 0 0 0 0 1 1 1 1 1 2 2 2 1 0 0 0 0 1 1 1 1 1
0 0 0 0 0 0 0 0 0 0 0 0 0 0 0 0 0 0 0 0 0 0 0 0 0 1 2 1 1 0 1 1 1 0 0 0 0 0 0 0 1 2 2
0 0 0 0 0 0 0 0 0 0 0 0 0 0 0 0 0 0 0 0 0 0 0 0 0 1 2 2 2 1 1 2 1 0 0 0 0 0 0 0 1 2 3
0 0 0 0 0 0 0 0 0 0 0 0 0 0 0 0 0 0 0 0 0 0 0 0 0 0 1 1 1 1 1 2 1 0 0 0 0 0 1 0 1 1 1
0 0 0 0 0 0 0 0 0 0 0 0 0 0 0 0 0 0 0 0 0 0 0 0 0 0 0 0 0 0 1 1 0 0 0 0 0 0 0 0 0 0 0
0 0 0 0 0 0 0 0 0 0 0 0 0 0 0 0 0 0 0 0 0 0 0 0 0 0 0 0 0 0 0 0 0 0 0 0 0 0 0 0 0 0 0
0 0 0 0 0 0 0 0 0 0 0 0 0 0 0 0 0 0 0 0 0 0 0 0 0 0 0 0 0 0 0 0 0 0 0 0 0 0 0 0 0 0 0
0 0 0 0 0 0 0 0 0 0 0 0 0 0 0 0 0 0 0 0 0 0 0 0 0 0 0 0 0 0 0 0 0 0 0 0 0 0 0 0 0 0 0
0 0 0 0 0 0 0 0 0 0 0 0 0 0 0 0 0 0 0 0 0 0 0 0 0 0 0 0 0 0 0 0 0 0 0 0 0 0 1 1 1 0 0
0 0 0 0 0 0 0 0 0 0 0 0 0 0 0 0 0 0 0 0 0 0 0 0 0 0 0 0 0 0 0 0 0 0 0 0 0 1 2 2 2 1 0
0 0 0 0 0 0 0 0 0 0 0 0 0 0 0 0 0 0 0 0 0 0 0 0 0 0 0 0 0 0 0 0 0 0 0 0 0 1 2 2 2 1 0
0 0 0 0 0 0 0 0 0 0 0 0 0 0 0 0 0 0 0 0 0 0 0 0 0 0 0 0 0 0 0 0 0 0 0 0 0 0 1 1 1 0 0
0 0 0 0 0 0 0 0 0 0 0 0 0 0 0 0 0 0 0 0 0 0 0 0 0 0 0 0 0 0 0 0 0 0 0 0 0 0 0 0 0 0 0
0 0 0 0 0 0 0 0 0 0 0 0 0 0 0 0 0 0 0 0 0 0 0 0 0 0 0 0 0 0 0 0 0 0 0 0 0 0 0 0 0 0 0
1 0 0 0 0 0 0 0 0 0 0 0 0 0 0 0 0 0 0 0 0 0 0 0 0 0 0 0 0 0 0 0 0 0 0 0 0 0 0 0 0 0 0
2 1 0 0 0 0 0 0 0 0 0 0 0 0 0 0 0 0 0 0 0 0 0 0 0 0 0 0 0 0 0 0 0 0 0 0 0 0 0 0 0 0 0
3 2 1 0 0 0 0 0 0 0 0 0 0 0 0 0 0 0 0 0 0 0 0 0 0 0 0 0 0 0 0 0 0 0 0 0 0 0 0 0 0 0 0
4 3 1 0 0 0 0 0 0 0 0 0 0 0 0 0 0 0 0 0 0 0 0 0 0 0 0 0 0 0 0 0 0 0 0 0 0 0 0 0 0 0 0
2 3 2 1 1 0 0 0 0 0 0 0 0 0 0 0 0 0 0 0 0 0 0 0 0 0 0 0 0 0 0 0 0 0 0 0 0 0 0 0 0 0 0
1 2 3 3 2 1 0 0 0 0 0 0 0 0 0 0 0 0 0 0 0 0 0 0 0 0 0 0 0 0 0 0 0 0 0 0 0 0 0 0 0 0 0
0 1 2 3 3 1 0 0 0 0 0 0 0 0 0 0 0 0 0 0 0 0 0 0 0 0 0 0 0 0 0 0 0 0 0 0 0 0 0 0 0 0 0
0 0 1 2 2 2 1 0 0 0 0 0 0 0 0 0 0 0 0 0 0 0 0 0 0 0 0 0 0 0 0 0 0 0 0 0 0 0 0 0 0 0 0
1 1 1 1 1 1 1 0 0 0 0 0 0 0 0 0 0 0 0 0 0 0 0 0 0 0 0 0 0 0 0 0 0 0 0 0 0 0 0 0 0 0 0
2 2 1 1 1 1 0 0 0 0 0 0 0 0 0 0 0 0 0 0 0 0 0 0 0 0 0 0 0 0 0 0 0 0 0 0 0 0 0 0 0 0 0
Wind_Speed
1 2 2 2 2 2 1 2 3 4 4 5 4 5 4 4 5 5 4 8 9 8 9 9 9 9 9 9 9 8 7 7 6 6 5 5 4 3 2 2 3 3 3
2 2 2 2 2 2 2 2 3 3 2 3 3 4 4 4 4 4 4 5 7 8 8 9 9 10 10 9 9 8 8 7 7 7 6 5 4 3 2 2 3 4 4
3 4 3 3 3 3 3 3 4 3 2 3 3 3 3 3 3 3 3 3 4 6 7 8 8 9 10 10 9 9 8 7 7 7 6 5 5 4 4 3 4 4 5
5 4 3 3 3 3 3 2 3 3 3 3 3 3 3 2 3 3 3 3 2 3 4 7 8 9 10 11 11 10 8 7 7 7 6 5 5 5 4 4 4 5 5
6 4 3 3 4 3 3 4 4 3 2 2 1 2 2 3 3 5 4 4 3 3 3 4 6 8 10 12 12 11 9 9 8 8 7 6 6 6 5 5 5 5 5
6 4 3 5 5 3 3 3 3 3 2 2 2 3 2 2 3 4 4 4 4 4 4 4 2 4 9 11 13 13 12 10 9 10 9 9 8 8 7 5 5 5 5
5 3 3 4 4 3 3 4 3 3 3 2 2 2 2 3 3 3 3 3 4 4 4 4 3 3 3 9 12 13 13 11 10 10 10 9 9 8 7 6 6 5 4
5 4 4 3 3 3 4 4 3 3 2 3 2 1 1 2 2 2 2 3 4 4 4 6 5 4 4 3 7 12 13 12 11 10 9 9 8 8 8 7 6 4 4
4 4 4 3 2 3 2 3 3 3 2 3 3 2 2 1 1 2 2 3 3 3 3 4 5 6 6 4 4 8 12 12 11 10 10 9 8 7 7 7 7 6 5
2 3 3 3 3 3 2 2 3 2 2 2 2 2 2 2 1 1 2 2 3 3 3 4 5 5 5 4 5 8 10 10 10 10 10 9 8 8 7 6 6 6 6
2 2 2 2 3 3 3 3 3 3 3 2 2 2 3 2 1 1 1 1 2 2 2 2 2 3 3 3 3 6 8 8 9 9 9 9 8 7 6 6 6 6 5
1 2 1 1 2 2 3 2 2 3 2 3 3 2 2 2 2 2 1 1 1 1 1 1 2 2 2 2 4 7 7 7 8 8 8 8 8 7 6 6 6 5 5
2 2 2 1 2 2 2 2 2 2 2 2 2 2 2 2 2 2 2 1 1 1 1 1 1 1 2 2 3 6 6 6 7 7 8 8 7 7 6 5 5 5 5
2 3 2 2 2 2 2 2 1 1 2 2 2 2 2 2 2 2 1 1 2 2 1 1 1 2 2 2 3 4 3 6 6 6 7 7 7 7 6 6 6 6 5
3 3 3 3 2 2 1 1 1 1 2 2 2 2 2 1 2 2 2 1 1 1 2 1 1 1 1 1 2 2 2 4 5 5 6 6 7 7 7 6 6 7 7
3 3 2 2 2 2 2 2 1 1 1 1 1 2 2 2 2 2 1 1 1 1 1 2 1 1 2 2 3 2 2 4 4 4 4 5 5 6 6 6 6 6 6
3 3 3 2 2 2 2 2 1 1 1 1 1 1 1 2 2 2 2 1 1 1 1 2 2 1 2 3 2 2 1 1 1 1 1 2 3 4 4 5 5 6 6
3 3 3 2 2 2 1 2 1 0 1 1 1 1 1 1 1 2 2 2 1 1 0 2 2 2 2 1 2 2 2 1 0 1 1 1 1 2 3 4 5 5 5
3 3 3 3 2 2 1 1 2 1 1 0 1 1 1 1 1 1 2 2 2 1 1 1 2 2 1 1 2 3 3 2 2 1 2 2 2 3 3 4 4 4 4
2 2 2 2 2 2 1 0 0 0 0 0 0 0 1 1 1 1 1 2 2 2 2 2 2 2 2 2 1 2 3 2 2 2 2 2 3 4 5 5 5 4 4
2 2 2 2 2 2 1 1 1 1 1 1 0 1 1 2 2 1 1 1 2 2 2 2 2 2 2 2 2 2 2 3 2 2 2 2 2 2 3 5 6 6 5
1 1 2 2 1 1 2 2 1 2 2 1 1 1 1 2 2 1 1 2 1 1 2 1 2 2 3 2 2 2 2 2 3 3 1 3 2 2 3 2 5 6 6
2 2 2 2 2 2 2 2 0 2 2 2 1 1 1 0 1 0 2 3 3 4 4 2 2 3 3 3 2 3 3 3 4 4 2 4 3 3 3 3 5 6 7
3 2 2 3 2 2 3 2 2 2 3 2 1 2 1 0 1 1 1 2 3 3 4 3 3 4 3 3 2 3 4 4 4 3 1 3 3 3 4 3 6 7 7
3 3 3 3 3 3 4 3 2 2 2 2 1 1 1 0 1 2 1 3 3 3 4 5 6 6 7 7 5 2 3 3 4 4 2 2 4 4 4 3 5 8 8
2 2 2 3 3 3 4 4 3 1 2 2 1 1 0 0 2 2 1 2 4 4 4 5 5 7 7 7 8 4 3 3 3 4 3 2 3 3 4 3 3 3 4
Wind_Direction
38 53 62 28 34 33 23 12 23 38 25 21 26 41 44 68 86 91 99 92 84 72 60 51 46 41 38 34 30 27 26 23 19 15 18 20 18 13 32 60 66 88 109
45 49 60 40 34 32 27 36 38 37 40 37 29 39 34 51 85 110 121 104 93 82 68 57 48 42 36 32 30 26 24 24 21 15 18 19 19 27 68 92 88 93 100
48 43 36 37 21 24 33 32 39 21 42 42 38 53 45 42 60 93 112 119 109 91 79 64 53 44 35 29 24 21 23 23 21 17 17 23 31 38 68 86 95 99 103
57 47 25 28 32 30 29 32 42 29 32 36 26 36 46 40 44 53 77 98 110 106 94 79 62 49 39 32 24 21 27 29 25 19 18 30 44 49 67 82 98 102 103
41 55 21 22 37 34 21 31 34 28 28 29 40 49 46 42 30 45 49 56 61 87 104 97 78 58 46 36 29 28 30 35 33 26 31 48 51 53 65 79 95 107 108
26 35 32 35 35 38 24 33 35 23 19 12 40 51 62 72 54 40 37 45 43 48 66 77 83 66 56 43 34 31 31 34 36 38 49 55 53 52 57 73 92 100 103
23 32 40 44 38 45 36 37 29 17 22 14 40 25 28 66 76 65 46 37 40 33 39 47 50 56 58 48 35 31 29 32 38 43 48 50 51 52 53 62 80 89 93
20 24 46 55 55 56 38 28 33 16 3 16 36 34 33 25 14 75 72 55 41 30 28 34 32 42 44 48 36 33 30 31 35 40 44 46 48 51 52 56 66 77 91
37 12 26 39 46 68 55 34 38 37 5 357 42 50 57 55 329 9 60 71 53 35 30 26 36 38 41 45 37 28 31 30 33 35 40 42 42 45 47 52 58 62 70
58 22 24 23 42 65 56 31 45 21 32 357 356 29 55 93 87 353 357 45 59 52 38 36 36 39 42 38 40 35 34 30 30 32 34 36 38 39 40 44 52 54 56
90 61 27 26 35 56 63 52 43 27 34 24 5 9 13 17 7 90 339 336 23 43 53 44 48 41 40 35 38 37 34 32 31 31 29 28 29 33 35 36 42 44 44
122 103 65 39 50 54 54 48 50 49 43 25 13 24 33 30 359 25 10 349 18 334 35 50 57 48 52 42 36 41 36 36 34 31 25 22 21 23 26 31 33 32 31
132 120 98 60 57 61 63 43 38 27 48 40 27 18 15 19 16 27 31 358 347 301 35 23 57 48 55 53 40 42 43 39 37 28 23 21 19 19 21 21 23 21 18
137 131 128 121 96 67 66 60 38 13 35 37 38 28 9 17 18 32 46 31 353 340 8 358 15 53 45 60 35 37 51 40 34 28 23 21 19 19 21 21 21 16 12
141 137 148 137 127 106 67 57 40 44 31 18 20 22 28 21 22 19 22 54 82 351 333 328 1 19 24 54 32 34 65 44 34 26 24 24 20 19 17 18 19 16 13
135 141 142 143 145 139 121 76 31 26 49 34 44 31 15 8 22 12 3 4 52 130 313 316 325 350 8 20 44 29 49 32 27 23 24 23 17 14 14 13 11 8 4
154 155 156 152 141 133 133 118 95 31 360 336 5 70 23 17 15 355 354 3 10 60 327 308 326 4 16 6 1 356 359 26 12 4 8 10 5 3 0 359 355 352 351
170 162 149 144 135 123 124 132 161 140 312 328 360 40 8 42 20 349 352 353 348 7 88 308 314 338 347 346 344 334 331 347 309 251 241 286 328 339 336 335 335 335 338
165 156 150 150 150 155 165 162 178 183 220 290 22 19 355 38 7 352 350 345 336 348 15 307 302 315 314 326 341 327 327 322 297 255 247 251 261 273 281 292 303 309 314
153 151 151 156 152 145 120 108 167 183 249 274 140 99 54 53 36 348 344 333 343 343 332 319 306 315 314 312 354 326 322 322 315 317 307 266 253 265 270 274 278 280 281
171 155 151 143 131 124 89 49 353 311 267 262 236 164 148 146 108 80 9 339 352 340 327 327 315 325 322 331 311 297 304 300 304 301 303 283 262 258 263 267 265 265 262
173 145 147 141 139 125 105 91 41 332 320 297 269 235 192 174 172 201 252 283 269 277 300 309 305 304 299 300 302 306 312 324 307 302 318 294 278 268 258 245 242 244 246
172 180 179 159 158 158 151 149 227 299 305 309 299 284 289 173 133 194 280 283 275 265 248 241 270 281 290 298 316 317 304 287 272 274 303 293 288 277 272 279 256 245 242
169 186 181 164 161 174 172 177 239 264 273 277 285 281 273 82 15 348 304 292 269 256 252 243 238 259 275 288 285 281 276 286 282 282 254 280 290 282 281 276 264 252 247
171 183 184 177 175 182 180 178 190 268 269 273 272 320 334 209 331 340 319 303 296 283 266 256 254 262 270 276 277 304 309 305 296 287 262 261 283 288 281 270 262 254 253
177 178 178 184 180 170 172 172 177 257 272 280 277 257 288 253 329 320 285 288 292 289 296 293 276 272 268 266 263 242 243 266 283 291 284 274 285 303 300 281 270 268 261